Portada
METAR-TAF:

METAR-TAF

Aeroports :

North Kingstown, Rhode Island, Estats Units d'Amèrica

latitud: 41-36N, longitud: 071-25W, altitud: 6 m

Observació

L'informe es va fer fa 6 hores i 25 minuts, a les 03:50 UTC
Vent 4 kt del Nord
Temperatura 6°C
Humitat 81%
Pressió 1010 hPa
Visibilitat: 16.1 km
Cel cobert a una alçada de 2000 ft

METAR: KOQU 200350Z 01004KT 10SM OVC020 06/03 A2983 RMK LAST

Hora: 05:15 (10:15 UTC)


TAF: manca

Observacions i pronòstics meteorològics de més de 4000 aeroports (METAR i TAF).

Les estacions disponibles són els punts grocs i vermells al mapa.

Posi el ratolí al punt desitjat per veure el nom de l'estació.

Feu clic per veure les observacions i els pronòstics meteorològics.

Per canviar el mapa: feu clic els botons verds amb una creu de color negre per apropar; al botó verd amb un guió per allunyar la imatge; o en les fletxes verdes per a mapes adjacents.


METAR-TAF: